[[{"header":{"parameterUnit":"m.s-1","parameterCategory":1,"la1":30.2992,"la2":30.254,"lo1":-89.0895,"lo2":-89.0443,"dy":0.0025,"dx":0.0025,"nx":19,"ny":19,"refTime":"2026-04-24T03:00:00:Z","depth":0,"parameterNumber":2,"parameterNumberName":"U-component_of_WINDS"},"data":[0,0,0,1.1426,1.1429,1.1549,1.155,1.1694,1.1696,0,0,0,0,0,0,0,0,0,0,0,1.1386,1.1387,1.1426,1.1429,1.1549,1.155,1.1694,1.1696,0,0,0,0,0,0,0,0,0,0,0,1.1385,1.1386,1.1388,1.1429,1.1549,1.155,1.1694,1.1606,0,0,0,0,0,0,0,0,0,0,1.1491,1.1449,1.1386,1.1388,1.143,1.1549,1.155,1.1602,1.1612,1.1636,0,1.1658,0,1.1679,1.1705,1.1705,0,0,0,1.1432,1.1441,1.1478,1.1388,1.1431,1.1549,1.1496,1.1608,1.1618,1.1649,1.166,1.1666,1.1682,1.1706,1.1706,1.1841,1.1841,0,0,1.1425,1.1405,1.147,1.1485,1.1467,1.1492,1.15,1.1614,1.1624,1.166,1.1669,1.1684,1.1707,1.1708,1.184,1.1841,0,0,0,1.1404,1.14,1.1434,1.1479,1.1501,1.1495,1.1504,1.1619,1.1632,1.1671,1.1686,1.1707,1.1709,1.184,1.184,1.1844,0,0,0,1.14,1.1388,1.1431,1.142,1.1499,1.1562,1.1506,1.1624,1.1638,1.1685,1.1708,1.171,1.1839,1.184,1.1843,1.1849,0,0,0,1.138,1.1385,1.1401,1.1418,1.1469,1.1561,1.158,1.1628,1.1647,1.1705,1.1711,1.1839,1.184,1.1842,1.1848,1.1879,0,0,0,1.1351,1.1402,1.1401,1.1464,1.1468,1.1562,1.158,1.1651,1.1701,1.1708,1.1839,1.184,1.1842,1.1847,1.1878,1.1901,1.1909,0,0,1.1404,1.1408,1.1446,1.1449,1.1538,1.1546,1.1635,1.1701,1.1725,1.18,1.1804,1.1844,1.1848,1.1879,1.1962,1.1968,0,0,0,1.1456,1.1483,1.1511,1.156,1.1612,1.1657,1.1711,1.1735,1.1801,1.176,1.1864,1.1867,1.1886,1.1898,1.1904,1.1921,1.1845,1.1845,1.1845,1.15,1.1529,1.1595,1.1639,1.1685,1.1741,1.1781,1.1823,1.1838,1.1862,1.1885,1.1932,1.1946,1.195,1.1968,1.19,1.19,1.19,1.19,1.1579,1.1623,1.1643,1.1714,1.1744,1.1804,1.186,1.1869,1.1928,1.1917,1.1935,1.192,1.1956,1.1973,1.1901,1.19,1.19,1.19,1.19,1.1611,1.1637,1.1667,1.174,1.1793,1.1835,1.1892,1.1918,1.1942,1.196,1.1986,1.1986,1.1989,1.1971,1.1971,1.1971,1.1971,1.1971,1.1971,1.1632,1.1665,1.1711,1.1771,1.1806,1.1855,1.1912,1.1947,1.1991,1.2005,1.2006,1.2018,1.1954,1.1937,1.1974,1.1974,1.1973,1.1973,1.1973,1.1701,1.169,1.176,1.1794,1.1868,1.1919,1.1951,1.202,1.2052,1.2079,1.2088,1.2037,1.2042,1.2038,1.2024,1.2082,1.2082,1.2082,1.2082,1.1727,1.1733,1.1811,1.1865,1.1921,1.1958,1.2035,1.2081,1.2126,1.2147,1.2143,1.2127,1.2122,1.213,1.2124,1.2112,1.219,1.219,1.2191,1.1771,1.1784,1.1845,1.1891,1.195,1.2001,1.2075,1.2136,1.2184,1.2196,1.2165,1.216,1.2135,1.2125,1.2135,1.2125,1.2103,0,0]},{"header":{"parameterUnit":"m.s-1","parameterCategory":1,"la1":30.2992,"la2":30.254,"lo1":-89.0895,"lo2":-89.0443,"dy":0.0025,"dx":0.0025,"nx":19,"ny":19,"refTime":"2026-04-24T03:00:00:Z","depth":0,"parameterNumber":3,"parameterNumberName":"V-component_of_WINDS"},"data":[0,0,0,2.4616,2.4618,2.4698,2.4699,2.4785,2.4786,0,0,0,0,0,0,0,0,0,0,0,2.4584,2.4584,2.4616,2.4618,2.4698,2.4699,2.4785,2.4786,0,0,0,0,0,0,0,0,0,0,0,2.4583,2.4584,2.4584,2.4618,2.4698,2.4699,2.4785,2.473,0,0,0,0,0,0,0,0,0,0,2.4655,2.4615,2.4584,2.4584,2.4619,2.4698,2.4699,2.4727,2.4733,2.4742,0,2.4748,0,2.4768,2.479,2.4791,0,0,0,2.4625,2.4611,2.4641,2.4584,2.4619,2.4698,2.4664,2.4731,2.4737,2.475,2.4749,2.4753,2.477,2.4791,2.4791,2.4823,2.4822,0,0,2.462,2.4593,2.4636,2.4644,2.4632,2.4661,2.4666,2.4735,2.4733,2.475,2.4755,2.4771,2.4791,2.4792,2.4823,2.4823,0,0,0,2.4603,2.4589,2.4618,2.464,2.4656,2.4663,2.4669,2.473,2.4741,2.4756,2.4772,2.4792,2.4793,2.4823,2.4823,2.4789,0,0,0,2.4601,2.458,2.4616,2.46,2.4655,2.4694,2.4662,2.4736,2.4745,2.4772,2.4792,2.4793,2.4823,2.4823,2.479,2.4777,0,0,0,2.4581,2.4577,2.4586,2.4598,2.4632,2.4694,2.4709,2.4739,2.4754,2.4791,2.4794,2.4823,2.4823,2.4791,2.4779,2.4777,0,0,0,2.4553,2.4554,2.4585,2.4592,2.4631,2.4672,2.4709,2.4741,2.4768,2.4792,2.4823,2.4823,2.4792,2.478,2.4778,2.477,2.4765,0,0,2.4539,2.4551,2.4558,2.4588,2.4617,2.4662,2.4686,2.4736,2.4764,2.4801,2.4802,2.479,2.4779,2.4777,2.4743,2.4739,0,0,0,2.4544,2.4548,2.4562,2.4587,2.4626,2.4659,2.4708,2.4727,2.476,2.4778,2.479,2.4784,2.4784,2.4782,2.4778,2.4779,2.4821,2.4821,2.4821,2.4484,2.4521,2.4534,2.4581,2.4605,2.4657,2.468,2.4714,2.4743,2.4745,2.4756,2.4731,2.4727,2.4725,2.4726,2.4756,2.4756,2.4755,2.4755,2.4466,2.4478,2.4519,2.4547,2.4585,2.4609,2.4659,2.4679,2.4706,2.4726,2.4728,2.4745,2.4718,2.4721,2.4753,2.4754,2.4754,2.4754,2.4754,2.4431,2.4443,2.4467,2.4508,2.4535,2.4583,2.4607,2.4642,2.4674,2.4676,2.4692,2.4692,2.4697,2.4681,2.4681,2.4681,2.4681,2.4681,2.4681,2.4384,2.4412,2.4429,2.4472,2.4493,2.4525,2.4579,2.46,2.4633,2.4656,2.4656,2.4685,2.4709,2.4714,2.468,2.468,2.468,2.468,2.468,2.4352,2.4365,2.4391,2.4412,2.4466,2.4491,2.4535,2.4576,2.4599,2.461,2.4639,2.4652,2.4666,2.467,2.4674,2.4632,2.4632,2.4632,2.4632,2.4321,2.4333,2.4367,2.4399,2.4435,2.4478,2.4506,2.4547,2.4592,2.4608,2.462,2.4629,2.4631,2.4644,2.4648,2.4653,2.4606,2.4606,2.4606,2.4303,2.432,2.4337,2.4382,2.4427,2.4464,2.4491,2.4526,2.4579,2.4605,2.4622,2.4623,2.4638,2.4641,2.4665,2.4671,2.468,0,0]}]]